This demonstration page uses our WeatherBlox Daily Observations layout. Learn more.

Left ArrowRight Arrow

39.08367, -84.50855

Hourly Observations for July 21, 2015

Temp ( °F °C ) Dew Point ( °F °C ) Humidity (%) Winds ( mph kmh ) Pressure ( in mb ) Visibility ( mi km ) Precip ( " mm )
12:53 am 00:53 Cloudy 74 23.3 70 21.1 88 88 NE 5 7 29.78 1008 10 16 0.00 0.00
1:20 am 01:20 Cloudy 73 23 70 21 89 89 Calm 29.80 1009 10 16 0.00 0.00
1:53 am 01:53 Mostly Cloudy 73 22.8 71 21.7 94 94 Calm 29.77 1008 10 16 0.00 0.00
2:53 am 02:53 Partly Cloudy 72 22.2 71 21.7 97 97 SSE 3 6 29.73 1007 9 14 0.01 0.25
3:53 am 03:53 Mostly Cloudy 72 22.2 71 21.7 97 97 Calm 29.73 1007 8 13 0.00 0.00
4:04 am 04:04 Mostly Cloudy with Heavy Rain 72 22 72 22 100 100 Calm 29.74 1007 2 2 0.00 0.00
4:10 am 04:10 Cloudy with Heavy Rain 72 22 72 22 100 100 Calm 29.74 1007 1 1 0.00 0.00
4:17 am 04:17 Cloudy with Heavy Rain 72 22.2 72 22.2 100 100 ENE 3 6 29.74 1007 1 2 0.22 5.59
4:26 am 04:26 Cloudy with Light Rain 72 22.2 72 22.2 100 100 Calm 29.74 1007 3 5 0.27 6.86
4:37 am 04:37 Cloudy with Heavy Rain 72 22.2 72 22.2 100 100 Calm 29.74 1007 2 3 0.35 8.89
4:45 am 04:45 Mostly Cloudy with Light Rain 72 22.2 72 22.2 100 100 Calm 29.74 1007 3 5 0.36 9.14
4:53 am 04:53 Mostly Cloudy 72 22.2 72 22.2 100 100 Calm 29.72 1007 9 14 0.36 9.14
5:06 am 05:06 Mostly Cloudy with Mist and Fog 72 22 72 22 100 100 Calm 29.74 1007 5 8 0.00 0.00
5:20 am 05:20 Cloudy with Mist and Fog 72 22 72 22 100 100 Calm 29.74 1007 4 6 0.00 0.00
5:37 am 05:37 Cloudy with Mist and Fog 72 22.2 72 22.2 100 100 Calm 29.74 1007 5 8 0.00 0.00
5:44 am 05:44 Cloudy with Mist and Fog 72 22 72 22 100 100 Calm 29.74 1007 4 6 0.00 0.00
5:53 am 05:53 Mostly Cloudy with Mist and Fog 72 22.2 72 22.2 100 100 Calm 29.72 1007 4 6 0.00 0.00
6:11 am 06:11 Mostly Cloudy with Mist and Fog 72 22.2 72 22.2 100 100 Calm 29.74 1007 2 3 0.00 0.00
6:29 am 06:29 Cloudy with Mist and Fog 72 22.2 72 22.2 100 100 Calm 29.74 1007 3 5 0.00 0.00
6:42 am 06:42 Mostly Cloudy with Mist and Fog 72 22 72 22 100 100 Calm 29.74 1007 2 3 0.00 0.00
6:49 am 06:49 Partly Cloudy with Mist and Fog 72 22 72 22 100 100 Calm 29.74 1007 1 2 0.00 0.00
6:50 am 06:50 Partly Cloudy with Mist and Fog 72 22.2 72 22.2 100 100 Calm 29.74 1007 1 2 0.00 0.00
6:58 am 06:58 Partly Cloudy with Patchy Fog 72 22 72 22 100 100 Calm 29.74 1007 6 10 0.00 0.00
7:53 am 07:53 Mostly Cloudy 74 23.3 71 21.7 91 91 NW 7 11 29.76 1008 10 16 0.00 0.00
8:53 am 08:53 Cloudy 74 23.3 70 21.1 88 88 WNW 5 7 29.78 1009 10 16 0.00 0.00
9:04 am 09:04 Cloudy 73 23 72 22 94 94 NW 5 7 29.80 1009 10 16 0.00 0.00
9:13 am 09:13 Cloudy 74 23.3 71 21.7 91 91 WNW 6 9 29.80 1009 10 16 0.00 0.00
9:53 am 09:53 Mostly Cloudy 78 25.6 70 21.1 76 76 NNW 7 11 29.79 1009 10 16 0.00 0.00
10:53 am 10:53 Sunny 80 26.7 70 21.1 71 71 N 8 13 29.80 1009 10 16 0.00 0.00
11:53 am 11:53 Mostly Cloudy 82 27.8 70 21.1 67 67 N 6 9 29.80 1009 10 16 0.00 0.00
12:53 pm 12:53 Mostly Cloudy 83 28.3 70 21.1 65 65 WNW 8 13 29.81 1010 10 16 0.00 0.00
1:53 pm 13:53 Partly Cloudy 84 28.9 68 20 59 59 WNW 13 20 29.82 1010 10 16 0.00 0.00
2:53 pm 14:53 Partly Cloudy 85 29.4 68 20 57 57 W 8 13 29.80 1009 10 16 0.00 0.00
3:53 pm 15:53 Mostly Cloudy 85 29.4 68 20 57 57 WNW 6 9 29.80 1009 10 16 0.00 0.00
4:53 pm 16:53 Mostly Cloudy 83 28.3 66 18.9 57 57 NW 10 17 29.80 1009 10 16 0.00 0.00
5:53 pm 17:53 Mostly Cloudy 85 29.4 65 18.3 51 51 NW 10 17 29.80 1009 10 16 0.00 0.00
6:53 pm 18:53 Partly Cloudy 83 28.3 63 17.2 51 51 NNW 12 19 29.80 1009 10 16 0.00 0.00
7:53 pm 19:53 Sunny 81 27.2 61 16.1 51 51 NW 10 17 29.82 1010 10 16 0.00 0.00
8:53 pm 20:53 Sunny 78 25.6 61 16.1 56 56 N 6 9 29.84 1011 10 16 0.00 0.00
9:53 pm 21:53 Clear 76 24.4 60 15.6 58 58 N 8 13 29.87 1012 10 16 0.00 0.00
10:53 pm 22:53 Clear 73 22.8 60 15.6 64 64 N 5 7 29.89 1012 10 16 0.00 0.00
11:53 pm 23:53 Clear 72 22.2 59 15 64 64 N 7 11 29.89 1012 10 16 0.00 0.00

Powered by AerisWeather